Location: Alsip
(41.6689°N, 87.7387°W)
Time: 14:20:59
(UTC+00:00)

Cosmos 1269 Rocket - Pass Details

Date: 14 July 2020
Orbit: 773 x 778 km, 74.1° (Epoch: 04 August)

Event Time Altitude Azimuth Distance (km) Brightness Sun altitude
Exits shadow 05:08:44 61° 94° (E) 877 4.1 -25.8°
Drops below altitude 10° 05:13:45 10° 26° (NNE) 2,327 7.1 -25.9°
Sets 05:16:09 0° 24° (NNE) 3,258 8.1 -26.0°
